period_start,C,m1,H,J0,J1,J2,J3,J4,J5,JA,JB,JC,JD,JJ,JK,JN,#
2017-08-24 00:03:07,0.03,1.28,0.00,24.84,29.22,32.21,13.73,45.23,1010.76,2023.95,2965.54,2752.72,3108.64,600.61,589.49,51.71,0000 0000 0000 0000 000000
2017-08-24 00:08:08,0.25,1.29,0.00,24.83,29.22,32.19,13.83,45.27,1010.76,2023.90,2961.61,2750.05,3105.43,600.10,589.07,51.76,0000 0000 0000 0000 000000
2017-08-24 00:13:09,0.12,1.30,0.00,24.82,29.22,32.18,13.82,45.26,1010.76,2023.92,2958.75,2747.96,3103.06,600.18,589.06,51.81,0000 0000 0000 0000 000000
2017-08-24 00:18:11,0.10,1.31,0.00,24.81,29.22,32.18,13.76,45.08,1010.76,2023.93,2956.84,2746.62,3101.45,599.77,588.69,51.86,0000 0000 0000 0000 000000
2017-08-24 00:23:12,0.04,1.31,0.00,24.80,29.22,32.18,13.75,45.20,1010.78,2023.94,2955.64,2745.99,3100.63,599.82,588.82,51.91,0000 0000 0000 0000 000000
2017-08-24 00:28:14,0.03,1.31,0.00,24.79,29.21,32.16,13.82,45.26,1010.76,2023.97,2955.01,2745.48,3100.03,600.41,589.41,51.96,0000 0000 0000 0000 000000
2017-08-24 00:33:15,0.03,1.31,0.00,24.77,29.20,32.16,13.78,45.25,1010.78,2023.96,2954.18,2745.01,3099.65,599.80,588.90,52.01,0000 0000 0000 0000 000000
2017-08-24 00:38:17,0.01,1.32,0.00,24.75,29.20,32.15,13.74,45.20,1010.78,2023.97,2953.99,2744.97,3099.10,599.94,589.03,52.06,0000 0000 0000 0000 000000
2017-08-24 00:43:18,0.00,1.32,0.00,24.74,29.20,32.13,13.80,45.21,1010.78,2023.98,2953.85,2744.95,3099.00,600.21,589.35,52.11,0000 0000 0000 0000 000000
2017-08-24 00:48:19,0.04,1.32,0.00,24.73,29.20,32.13,13.82,45.24,1010.78,2023.99,2953.11,2744.39,3098.91,600.11,589.26,52.16,0000 0000 0000 0000 000000
2017-08-24 00:53:20,0.03,1.32,0.00,24.72,29.18,32.12,13.78,45.30,1010.79,2023.97,2952.60,2744.01,3098.17,599.87,588.93,52.21,0000 0000 0000 0000 000000
2017-08-24 00:58:21,0.01,1.32,0.00,24.71,29.17,32.10,13.78,45.29,1010.83,2023.97,2951.92,2743.92,3097.96,599.86,589.05,52.26,0000 0000 0000 0000 000000
2017-08-24 01:03:22,0.06,1.32,0.00,24.70,29.17,32.10,13.79,45.27,1010.96,2023.99,2951.10,2743.18,3097.37,600.34,589.71,52.31,0000 0000 0000 0000 000000
2017-08-24 01:08:24,0.01,1.32,0.00,24.70,29.17,32.09,13.77,45.27,1010.85,2023.98,2950.76,2743.00,3097.01,600.39,589.70,52.36,0000 0000 0000 0000 000000
2017-08-24 01:13:25,0.05,1.32,0.00,24.68,29.15,32.10,13.85,45.25,1010.84,2023.99,2949.70,2742.61,3096.56,600.24,589.79,52.41,0000 0000 0000 0000 000000
2017-08-24 01:18:26,0.06,1.33,0.00,24.67,29.15,32.07,13.90,46.13,1010.83,2023.98,2947.67,2741.51,3095.32,601.06,590.32,52.46,0000 0000 0000 0000 000000
2017-08-24 01:23:28,0.73,1.36,0.00,24.66,29.15,32.06,13.87,45.77,1010.89,2023.98,2930.63,2734.10,3086.98,600.02,589.40,52.51,0000 0000 0000 0000 000000
2017-08-24 01:28:29,0.02,1.37,0.00,24.65,29.13,32.06,13.90,45.63,1011.06,2023.98,2928.46,2733.07,3086.03,599.73,589.30,52.56,0000 0000 0000 0000 000000
2017-08-24 01:33:30,0.00,1.37,0.00,24.65,29.12,32.05,13.80,45.83,1011.20,2023.99,2928.03,2733.00,3085.99,600.06,589.82,52.61,0000 0000 0000 0000 000000
2017-08-24 01:38:31,0.00,1.37,0.00,24.64,29.12,32.06,13.78,45.70,1011.23,2023.99,2927.95,2732.99,3085.91,599.33,588.79,52.66,0000 0000 0000 0000 000000
2017-08-24 01:43:32,0.02,1.37,0.00,24.63,29.11,32.03,13.77,45.73,1011.24,2023.99,2927.45,2732.96,3085.51,600.30,589.93,52.72,0000 0000 0000 0000 000000
2017-08-24 01:48:33,-0.00,1.37,0.00,24.62,29.10,32.02,13.83,45.48,1011.25,2023.99,2927.13,2732.95,3085.40,600.00,589.47,52.77,0000 0000 0000 0000 000000
2017-08-24 01:53:35,0.01,1.37,0.00,24.60,29.10,32.02,13.83,45.65,1011.25,2023.99,2927.01,2732.92,3085.21,599.70,589.40,52.82,0000 0000 0000 0000 000000
2017-08-24 01:58:36,0.00,1.37,0.00,24.60,29.09,32.02,13.87,45.55,1011.25,2023.99,2927.00,2732.79,3085.02,599.90,589.80,52.87,0000 0000 0000 0000 000000
2017-08-24 02:03:37,0.00,1.37,0.00,24.59,29.07,32.00,13.81,45.45,1011.25,2024.00,2926.89,2732.70,3085.02,600.03,589.74,52.92,0000 0000 0000 0000 000000
2017-08-24 02:08:39,0.01,1.37,0.00,24.57,29.07,32.00,13.85,45.41,1011.26,2024.00,2926.96,2732.48,3085.01,600.04,589.77,52.97,0000 0000 0000 0000 000000
2017-08-24 02:13:40,0.01,1.37,0.00,24.57,29.06,31.99,13.78,45.45,1011.26,2024.00,2926.75,2732.14,3085.00,599.95,589.64,53.02,0000 0000 0000 0000 000000
2017-08-24 02:18:41,0.03,1.37,0.00,24.56,29.05,31.99,13.77,45.50,1011.26,2024.00,2925.65,2731.73,3084.59,599.49,589.43,53.07,0000 0000 0000 0000 000000
2017-08-24 02:23:43,1.02,1.41,0.00,24.55,29.05,31.96,13.86,45.59,1011.28,2024.01,2908.90,2722.41,3074.12,600.32,590.14,53.12,0000 0000 0000 0000 000000
2017-08-24 02:28:44,0.10,1.43,0.00,24.54,29.04,31.96,13.91,45.55,1011.34,2024.01,2902.26,2718.80,3070.04,600.31,590.18,53.17,0000 0000 0000 0000 000000
2017-08-24 02:33:46,0.05,1.43,0.00,24.54,29.02,31.95,13.83,45.38,1011.43,2024.01,2901.39,2718.08,3069.41,600.14,590.08,53.22,0000 0000 0000 0000 000000
2017-08-24 02:38:47,0.01,1.44,0.00,24.53,29.02,31.94,13.85,45.45,1011.45,2024.01,2900.90,2717.96,3069.00,600.42,590.37,53.27,0000 0000 0000 0000 000000
2017-08-24 02:43:49,0.06,1.44,0.00,24.52,29.02,31.95,13.94,45.57,1011.48,2024.01,2899.92,2717.23,3068.50,600.53,590.52,53.32,0000 0000 0000 0000 000000
2017-08-24 02:48:50,0.06,1.44,0.00,24.52,29.01,31.93,13.80,45.34,1011.60,2024.01,2898.70,2716.44,3067.62,599.62,589.65,53.37,0000 0000 0000 0000 000000
2017-08-24 02:53:52,0.02,1.44,0.00,24.52,29.00,31.92,13.82,45.41,1011.72,2024.02,2897.96,2716.00,3067.03,599.79,589.92,53.42,0000 0000 0000 0000 000000
2017-08-24 02:58:53,0.07,1.44,0.00,24.52,29.00,31.92,13.84,45.49,1011.69,2024.03,2896.84,2715.52,3066.42,600.18,590.29,53.47,0000 0000 0000 0000 000000
2017-08-24 03:03:54,0.07,1.45,0.00,24.52,29.00,31.91,13.78,45.39,1011.71,2024.01,2895.23,2714.52,3065.32,600.00,590.19,53.52,0000 0000 0000 0000 000000
2017-08-24 03:08:56,0.05,1.45,0.00,24.52,28.98,31.90,13.82,45.39,1011.73,2024.01,2893.96,2713.82,3064.49,600.20,590.43,53.57,0000 0000 0000 0000 000000
2017-08-24 03:13:57,0.08,1.46,0.00,24.51,28.97,31.90,13.76,45.54,1011.73,2024.01,2892.43,2712.86,3063.47,599.71,589.85,53.62,0000 0000 0000 0000 000000
2017-08-24 03:18:58,0.06,1.46,0.00,24.51,28.97,31.90,13.78,45.34,1011.73,2024.00,2891.04,2712.05,3062.51,600.05,590.18,53.67,0000 0000 0000 0000 000000
2017-08-24 03:23:59,0.05,1.46,0.00,24.50,28.97,31.88,13.80,45.42,1011.73,2024.00,2890.08,2711.31,3061.96,599.91,589.93,53.72,0000 0000 0000 0000 000000
2017-08-24 03:29:01,0.03,1.47,0.00,24.50,28.95,31.87,13.77,45.90,1011.73,2024.01,2889.32,2711.01,3061.47,600.57,590.49,53.77,0000 0000 0000 0000 000000
2017-08-24 03:34:02,0.00,1.47,0.00,24.50,28.95,31.88,13.73,45.44,1011.73,2024.00,2889.07,2710.99,3061.07,599.52,589.79,53.82,0000 0000 0000 0000 000000
2017-08-24 03:39:03,0.02,1.47,0.00,24.50,28.95,31.86,13.88,45.63,1011.74,2024.01,2888.76,2710.71,3061.00,600.03,590.29,53.87,0000 0000 0000 0000 000000
2017-08-24 03:44:05,0.05,1.47,0.00,24.50,28.95,31.86,13.89,45.52,1011.75,2024.01,2887.71,2710.04,3060.26,600.35,590.61,53.93,0000 0000 0000 0000 000000
2017-08-24 03:49:06,0.06,1.47,0.00,24.50,28.95,31.87,13.78,45.48,1011.75,2024.01,2886.53,2709.37,3059.61,600.09,590.35,53.98,0000 0000 0000 0000 000000
2017-08-24 03:54:08,0.01,1.47,0.00,24.50,28.94,31.86,13.86,45.57,1011.77,2024.05,2885.99,2709.00,3059.02,599.96,590.18,54.03,0000 0000 0000 0000 000000
2017-08-24 03:59:09,0.04,1.47,0.00,24.49,28.93,31.86,13.81,45.84,1011.84,2024.02,2885.40,2708.66,3058.87,599.79,589.96,54.08,0000 0000 0000 0000 000000
2017-08-24 04:04:10,0.03,1.48,0.00,24.47,28.92,31.84,13.83,45.59,1012.02,2024.06,2884.90,2708.10,3058.21,599.18,589.76,54.13,0000 0000 0000 0000 000000
2017-08-24 04:09:12,0.01,1.48,0.00,24.47,28.92,31.84,13.85,45.54,1012.15,2024.07,2884.58,2708.02,3058.03,599.92,590.50,54.18,0000 0000 0000 0000 000000
2017-08-24 04:14:13,0.01,1.48,0.00,24.47,28.92,31.85,13.81,45.51,1012.20,2024.05,2884.38,2708.00,3058.01,600.28,590.74,54.23,0000 0000 0000 0000 000000
2017-08-24 04:19:15,0.01,1.48,0.00,24.47,28.92,31.85,13.87,45.60,1012.22,2024.10,2884.04,2708.00,3058.00,599.97,590.53,54.28,0000 0000 0000 0000 000000
2017-08-24 04:24:16,-0.00,1.48,0.00,24.47,28.92,31.84,13.86,45.54,1012.22,2024.04,2884.00,2707.99,3058.00,599.78,590.33,54.33,0000 0000 0000 0000 000000
2017-08-24 04:29:17,0.00,1.48,0.00,24.46,28.92,31.83,13.82,45.97,1012.22,2024.05,2883.98,2707.99,3057.99,600.43,590.96,54.38,0000 0000 0000 0000 000000
2017-08-24 04:34:19,0.01,1.48,0.00,24.46,28.91,31.84,13.77,45.74,1012.22,2024.13,2883.96,2707.98,3057.98,599.67,590.05,54.43,0000 0000 0000 0000 000000
2017-08-24 04:39:20,0.01,1.48,0.00,24.47,28.90,31.84,13.91,45.89,1012.22,2024.14,2883.83,2707.96,3057.95,600.23,590.78,54.48,0000 0000 0000 0000 000000
2017-08-24 04:44:21,0.00,1.48,0.00,24.47,28.90,31.82,13.66,45.36,1012.23,2024.11,2883.68,2707.97,3057.91,599.04,589.54,54.53,0000 0000 0000 0000 000000
2017-08-24 04:49:22,0.03,1.48,0.00,24.47,28.90,31.83,13.87,45.67,1012.22,2024.26,2883.35,2707.93,3057.70,600.29,590.82,54.58,0000 0000 0000 0000 000000
2017-08-24 04:54:24,-0.01,1.48,0.00,24.47,28.90,31.81,13.82,45.45,1012.22,2024.24,2883.15,2707.89,3057.54,600.13,590.59,54.63,0000 0000 0000 0000 000000
2017-08-24 04:59:25,0.04,1.48,0.00,24.47,28.90,31.81,13.83,45.90,1012.22,2024.45,2883.01,2707.59,3057.17,600.34,591.02,54.68,0000 0000 0000 0000 000000
2017-08-24 05:04:26,-0.02,1.48,0.00,24.45,28.90,31.83,13.82,45.84,1012.22,2024.26,2883.00,2707.16,3057.03,599.49,589.91,54.73,0000 0000 0000 0000 000000
2017-08-24 05:09:27,-0.00,1.48,0.00,24.47,28.90,31.81,13.81,45.59,1012.22,2024.20,2882.99,2707.07,3057.00,599.37,589.97,54.78,0000 0000 0000 0000 000000
2017-08-24 05:14:28,0.04,1.48,0.00,24.46,28.90,31.80,13.89,45.64,1012.23,2024.45,2882.87,2707.02,3057.00,600.03,590.53,54.83,0000 0000 0000 0000 000000
2017-08-24 05:19:29,0.05,1.49,0.00,24.46,28.90,31.81,13.93,45.58,1012.24,2024.61,2881.98,2706.91,3056.45,600.59,591.02,54.88,0000 0000 0000 0000 000000
2017-08-24 05:24:31,0.03,1.49,0.00,24.45,28.90,31.79,13.90,45.63,1012.23,2024.83,2881.31,2706.42,3056.03,600.06,590.81,54.93,0000 0000 0000 0000 000000
2017-08-24 05:29:32,0.00,1.49,0.00,24.46,28.90,31.80,13.84,45.49,1012.25,2024.69,2881.01,2706.05,3056.00,599.75,590.29,54.99,0000 0000 0000 0000 000000
2017-08-24 05:34:33,0.01,1.49,0.00,24.47,28.90,31.81,13.77,45.43,1012.33,2024.76,2880.95,2706.01,3055.99,599.94,590.60,55.04,0000 0000 0000 0000 000000
2017-08-24 05:39:35,0.00,1.49,0.00,24.47,28.90,31.81,13.84,45.58,1012.36,2024.70,2880.43,2706.00,3055.91,600.03,590.61,55.09,0000 0000 0000 0000 000000
2017-08-24 05:44:36,0.02,1.49,0.00,24.47,28.90,31.79,13.84,45.71,1012.49,2024.73,2880.03,2705.98,3055.52,599.91,590.54,55.14,0000 0000 0000 0000 000000
2017-08-24 05:49:38,0.01,1.49,0.00,24.47,28.90,31.79,13.81,45.60,1012.61,2024.78,2880.00,2705.85,3055.06,599.86,590.55,55.19,0000 0000 0000 0000 000000
2017-08-24 05:54:39,0.00,1.49,0.00,24.48,28.90,31.81,13.81,45.48,1012.68,2024.64,2879.94,2705.49,3055.00,600.12,590.89,55.24,0000 0000 0000 0000 000000
2017-08-24 05:59:40,0.02,1.49,0.00,24.48,28.90,31.80,13.85,45.63,1012.69,2024.74,2879.58,2705.16,3055.00,600.15,590.76,55.29,0000 0000 0000 0000 000000
2017-08-24 06:04:42,0.02,1.49,0.00,24.50,28.90,31.80,13.78,45.44,1012.69,2024.80,2879.05,2705.02,3054.97,599.81,590.57,55.34,0000 0000 0000 0000 000000
2017-08-24 06:09:43,0.01,1.50,0.00,24.50,28.90,31.79,13.84,45.60,1012.70,2024.78,2879.00,2705.00,3054.38,600.48,591.24,55.39,0000 0000 0000 0000 000000
2017-08-24 06:14:44,0.01,1.50,0.00,24.50,28.90,31.79,13.79,45.63,1012.71,2024.86,2878.98,2705.00,3054.15,599.92,590.64,55.44,0000 0000 0000 0000 000000
2017-08-24 06:19:45,0.00,1.50,0.00,24.50,28.90,31.82,13.86,45.52,1012.71,2024.80,2878.71,2704.98,3054.02,599.87,590.63,55.49,0000 0000 0000 0000 000000
2017-08-24 06:24:46,0.02,1.50,0.00,24.50,28.90,31.80,13.83,45.67,1012.71,2024.78,2878.31,2704.88,3054.00,600.22,590.86,55.54,0000 0000 0000 0000 000000
2017-08-24 06:29:47,0.01,1.50,0.00,24.50,28.90,31.81,13.85,45.52,1012.71,2024.85,2878.03,2704.69,3054.00,599.67,590.38,55.59,0000 0000 0000 0000 000000
2017-08-24 06:34:49,0.02,1.50,0.00,24.51,28.90,31.82,13.81,45.52,1012.71,2024.93,2877.98,2704.23,3053.98,600.30,591.14,55.64,0000 0000 0000 0000 000000
2017-08-24 06:39:50,0.00,1.50,0.00,24.52,28.90,31.81,13.82,45.52,1012.71,2024.90,2877.93,2704.03,3053.89,599.89,590.67,55.69,0000 0000 0000 0000 000000
2017-08-24 06:44:52,0.01,1.50,0.00,24.52,28.90,31.81,13.79,45.35,1012.72,2024.81,2877.38,2704.00,3053.29,599.71,590.51,55.74,0000 0000 0000 0000 000000
2017-08-24 06:49:53,0.00,1.50,0.00,24.52,28.90,31.81,13.86,45.73,1012.73,2024.76,2877.05,2703.99,3053.03,600.38,591.07,55.79,0000 0000 0000 0000 000000
2017-08-24 06:54:54,-0.01,1.50,0.00,24.52,28.90,31.80,13.82,45.36,1012.72,2024.75,2877.01,2703.99,3053.00,599.68,590.51,55.84,0000 0000 0000 0000 000000
2017-08-24 06:59:56,0.00,1.50,0.00,24.53,28.90,31.80,13.83,45.52,1012.72,2024.69,2876.96,2703.92,3053.00,600.41,591.11,55.89,0000 0000 0000 0000 000000
2017-08-24 07:04:57,0.02,1.50,0.00,24.55,28.90,31.84,13.81,45.58,1012.76,2024.73,2876.66,2703.65,3052.97,600.42,591.11,55.94,0000 0000 0000 0000 000000
2017-08-24 07:09:59,0.02,1.50,0.00,24.55,28.92,31.82,13.85,45.42,1012.85,2024.73,2876.15,2703.22,3052.85,600.16,590.91,56.00,0000 0000 0000 0000 000000
2017-08-24 07:15:00,0.00,1.50,0.00,24.56,28.92,31.83,13.80,45.48,1012.90,2024.68,2876.01,2703.06,3052.55,600.30,591.03,56.05,0000 0000 0000 0000 000000
2017-08-24 07:20:01,0.02,1.50,0.00,24.56,28.92,31.83,13.82,45.48,1012.95,2024.76,2876.00,2703.01,3052.10,599.67,590.41,56.10,0000 0000 0000 0000 000000
2017-08-24 07:25:03,0.00,1.50,0.00,24.57,28.92,31.85,13.79,45.30,1012.95,2024.79,2875.96,2703.00,3052.01,599.76,590.51,56.15,0000 0000 0000 0000 000000
2017-08-24 07:30:04,-0.03,1.50,0.00,24.57,28.92,31.84,13.85,45.61,1013.01,2024.45,2875.44,2702.99,3052.00,600.31,591.03,56.20,0000 0000 0000 0000 000000
2017-08-24 07:35:05,0.00,1.50,0.00,24.57,28.92,31.85,13.83,45.83,1013.11,2024.27,2875.06,2702.95,3051.98,600.00,590.76,56.25,0000 0000 0000 0000 000000
2017-08-24 07:40:06,0.00,1.50,0.00,24.57,28.92,31.85,13.85,45.67,1013.13,2024.19,2875.00,2702.71,3051.88,599.50,590.36,56.30,0000 0000 0000 0000 000000
2017-08-24 07:45:08,0.02,1.50,0.00,24.57,28.93,31.86,13.81,45.52,1013.16,2024.37,2875.00,2702.65,3051.83,600.16,590.98,56.35,0000 0000 0000 0000 000000
2017-08-24 07:50:10,0.03,1.50,0.00,24.58,28.94,31.85,13.77,45.54,1013.18,2024.27,2874.51,2702.14,3051.17,599.91,590.81,56.40,0000 0000 0000 0000 000000
2017-08-24 07:55:11,-0.00,1.50,0.00,24.57,28.95,31.86,13.91,45.74,1013.18,2024.23,2874.24,2702.01,3051.00,600.60,591.33,56.45,0000 0000 0000 0000 000000
2017-08-24 08:00:12,0.00,1.50,0.00,24.57,28.95,31.86,13.81,45.46,1013.20,2024.18,2874.13,2702.00,3051.00,599.66,590.54,56.50,0000 0000 0000 0000 000000
2017-08-24 08:05:14,-0.00,1.50,0.00,24.59,28.95,31.87,13.91,45.75,1013.20,2024.10,2874.00,2702.00,3051.00,600.17,591.17,56.55,0000 0000 0000 0000 000000
2017-08-24 08:10:15,-0.00,1.50,0.00,24.60,28.95,31.86,13.72,45.60,1013.20,2024.04,2873.99,2701.98,3050.98,599.40,590.30,56.60,0000 0000 0000 0000 000000
2017-08-24 08:15:16,0.02,1.50,0.00,24.60,28.95,31.85,13.87,45.58,1013.20,2024.04,2873.84,2701.90,3050.67,600.39,591.05,56.65,0000 0000 0000 0000 000000
2017-08-24 08:20:17,0.02,1.51,0.00,24.60,28.95,31.88,13.81,45.40,1013.20,2024.04,2873.39,2701.59,3050.18,599.42,590.27,56.70,0000 0000 0000 0000 000000
2017-08-24 08:25:19,0.01,1.51,0.00,24.62,28.95,31.89,13.86,45.81,1013.20,2024.01,2873.08,2701.10,3050.02,601.00,591.84,56.75,0000 0000 0000 0000 000000
2017-08-24 08:30:20,0.00,1.51,0.00,24.62,28.95,31.88,13.82,45.67,1013.20,2024.01,2873.00,2701.00,3050.00,599.90,590.65,56.80,0000 0000 0000 0000 000000
2017-08-24 08:35:21,0.00,1.51,0.00,24.62,28.96,31.87,13.79,45.63,1013.21,2024.02,2872.99,2701.00,3050.00,599.81,590.53,56.85,0000 0000 0000 0000 000000
2017-08-24 08:40:22,0.00,1.51,0.00,24.62,28.96,31.88,13.82,45.59,1013.23,2024.00,2872.94,2701.00,3049.97,599.96,590.78,56.90,0000 0000 0000 0000 000000
2017-08-24 08:45:23,0.01,1.51,0.00,24.62,28.96,31.90,13.89,45.51,1013.23,2024.01,2872.63,2701.00,3049.95,600.04,590.83,56.95,0000 0000 0000 0000 000000
2017-08-24 08:50:25,0.00,1.51,0.00,24.62,28.96,31.88,13.87,45.44,1013.27,2024.01,2872.43,2701.00,3049.83,600.47,591.28,57.00,0000 0000 0000 0000 000000
2017-08-24 08:55:26,0.01,1.51,0.00,24.62,28.97,31.88,13.87,45.42,1013.27,2024.00,2872.07,2700.97,3049.35,600.46,591.12,57.06,0000 0000 0000 0000 000000
2017-08-24 09:00:28,0.01,1.51,0.00,24.62,28.97,31.90,13.76,45.31,1013.29,2024.01,2872.00,2700.75,3049.04,599.85,590.46,57.11,0000 0000 0000 0000 000000
2017-08-24 09:05:29,0.02,1.51,0.00,24.62,28.97,31.89,13.78,45.24,1013.30,2024.01,2871.96,2700.40,3049.01,600.00,590.74,57.16,0000 0000 0000 0000 000000
2017-08-24 09:10:30,0.01,1.51,0.00,24.62,28.97,31.89,13.96,45.98,1013.44,2024.00,2871.65,2700.11,3049.00,600.27,591.18,57.21,0000 0000 0000 0000 000000
2017-08-24 09:15:32,0.01,1.51,0.00,24.62,28.97,31.90,13.81,45.38,1013.61,2024.01,2871.14,2700.03,3049.00,599.58,590.63,57.26,0000 0000 0000 0000 000000
2017-08-24 09:20:33,0.00,1.51,0.00,24.62,28.97,31.90,13.90,45.68,1013.67,2024.01,2871.01,2700.01,3048.98,600.39,591.43,57.31,0000 0000 0000 0000 000000
2017-08-24 09:25:34,0.00,1.51,0.00,24.62,28.97,31.91,13.91,45.57,1013.65,2024.01,2871.00,2700.00,3048.86,600.59,591.62,57.36,0000 0000 0000 0000 000000
2017-08-24 09:30:35,0.01,1.51,0.00,24.62,28.97,31.90,13.76,45.36,1013.67,2024.03,2870.97,2700.00,3048.54,600.02,591.24,57.41,0000 0000 0000 0000 000000
2017-08-24 09:35:36,0.03,1.51,0.00,24.62,28.97,31.90,13.88,45.42,1013.67,2024.04,2870.30,2699.99,3048.12,600.23,591.47,57.46,0000 0000 0000 0000 000000
2017-08-24 09:40:38,0.01,1.51,0.00,24.62,28.97,31.90,13.83,45.43,1013.67,2024.09,2869.99,2699.87,3048.01,599.92,590.96,57.51,0000 0000 0000 0000 000000
2017-08-24 09:45:39,0.01,1.52,0.00,24.62,28.97,31.91,13.90,45.48,1013.68,2024.07,2869.98,2699.47,3048.00,600.23,591.28,57.56,0000 0000 0000 0000 000000
2017-08-24 09:50:40,0.02,1.52,0.00,24.63,28.97,31.91,13.78,45.57,1013.68,2024.10,2869.74,2699.13,3047.98,599.78,591.06,57.61,0000 0000 0000 0000 000000
2017-08-24 09:55:41,0.02,1.52,0.00,24.62,28.97,31.91,13.77,45.42,1013.68,2024.12,2869.42,2699.02,3047.93,599.69,590.93,57.66,0000 0000 0000 0000 000000
2017-08-24 10:00:43,0.00,1.52,0.00,24.63,28.97,31.91,13.86,45.36,1013.69,2024.14,2869.10,2699.00,3047.73,600.17,591.20,57.71,0000 0000 0000 0000 000000
2017-08-24 10:05:44,0.01,1.52,0.00,24.62,28.97,31.91,13.78,45.27,1013.69,2024.08,2869.00,2698.99,3047.11,600.17,591.25,57.76,0000 0000 0000 0000 000000
2017-08-24 10:10:45,0.01,1.52,0.00,24.62,28.97,31.89,13.81,45.41,1013.69,2024.14,2868.93,2698.98,3047.01,599.94,591.02,57.81,0000 0000 0000 0000 000000
2017-08-24 10:15:47,0.02,1.52,0.00,24.62,28.97,31.90,13.76,45.28,1013.69,2024.19,2868.35,2698.93,3047.00,599.69,590.78,57.86,0000 0000 0000 0000 000000
2017-08-24 10:20:48,0.03,1.52,0.00,24.61,28.97,31.92,13.89,45.25,1013.69,2024.37,2868.01,2698.51,3046.95,600.31,591.33,57.91,0000 0000 0000 0000 000000
2017-08-24 10:25:49,0.01,1.52,0.00,24.62,28.97,31.91,13.81,45.33,1013.70,2024.38,2868.00,2698.09,3046.63,599.80,590.97,57.96,0000 0000 0000 0000 000000
2017-08-24 10:30:51,0.01,1.52,0.00,24.62,28.97,31.90,13.83,45.47,1013.71,2024.17,2867.64,2698.00,3046.05,599.90,591.03,58.01,0000 0000 0000 0000 000000
2017-08-24 10:35:52,0.02,1.52,0.00,24.62,28.97,31.91,13.85,45.26,1013.72,2024.30,2867.10,2697.99,3046.00,599.81,590.92,58.06,0000 0000 0000 0000 000000
2017-08-24 10:40:53,0.00,1.52,0.00,24.62,28.97,31.92,13.80,45.20,1013.80,2024.31,2867.00,2697.98,3046.00,599.83,590.88,58.11,0000 0000 0000 0000 000000
2017-08-24 10:45:55,0.02,1.52,0.00,24.62,28.97,31.90,13.81,45.45,1013.86,2024.49,2867.00,2697.86,3045.93,599.69,590.98,58.17,0000 0000 0000 0000 000000
2017-08-24 10:50:56,0.01,1.52,0.00,24.62,28.97,31.92,13.81,45.41,1013.91,2024.15,2866.94,2697.19,3045.32,599.66,590.89,58.22,0000 0000 0000 0000 000000
2017-08-24 10:55:57,0.02,1.53,0.00,24.62,28.97,31.90,13.80,45.24,1014.08,2024.10,2866.51,2697.05,3045.06,599.80,591.12,58.27,0000 0000 0000 0000 000000
2017-08-24 11:00:58,0.00,1.53,0.00,24.62,28.97,31.90,13.87,45.40,1014.13,2024.11,2866.02,2697.00,3045.00,600.00,591.46,58.32,0000 0000 0000 0000 000000
2017-08-24 11:06:00,0.00,1.53,0.00,24.61,28.97,31.92,13.84,45.41,1014.12,2024.15,2866.00,2697.00,3045.00,599.83,591.20,58.37,0000 0000 0000 0000 000000
2017-08-24 11:11:01,0.00,1.53,0.00,24.61,28.97,31.91,13.85,45.27,1014.13,2024.13,2865.93,2696.99,3044.95,599.71,590.93,58.42,0000 0000 0000 0000 000000
2017-08-24 11:16:03,0.01,1.53,0.00,24.60,28.97,31.90,13.77,45.26,1014.13,2024.10,2865.85,2696.96,3044.70,599.84,591.29,58.47,0000 0000 0000 0000 000000
2017-08-24 11:21:04,0.02,1.53,0.00,24.59,28.97,31.91,13.80,45.38,1014.10,2024.16,2865.60,2696.84,3044.37,599.82,591.26,58.52,0000 0000 0000 0000 000000
2017-08-24 11:26:05,0.03,1.53,0.00,24.59,28.97,31.91,13.78,45.22,1014.07,2024.14,2865.11,2696.42,3044.04,599.86,591.23,58.57,0000 0000 0000 0000 000000
2017-08-24 11:31:07,0.01,1.53,0.00,24.59,28.97,31.91,13.83,45.38,1014.15,2024.17,2865.01,2696.11,3044.01,599.92,591.35,58.62,0000 0000 0000 0000 000000
2017-08-24 11:36:08,0.00,1.53,0.00,24.57,28.97,31.90,13.83,45.67,1014.15,2024.27,2865.00,2696.03,3044.00,600.11,591.57,58.67,0000 0000 0000 0000 000000
2017-08-24 11:41:09,0.01,1.53,0.00,24.57,28.97,31.90,13.85,45.42,1014.16,2024.34,2864.98,2696.00,3043.99,599.82,591.33,58.72,0000 0000 0000 0000 000000
2017-08-24 11:46:11,-0.00,1.53,0.00,24.57,28.97,31.89,13.90,45.75,1014.17,2024.40,2864.96,2696.00,3043.99,600.14,591.52,58.77,0000 0000 0000 0000 000000
2017-08-24 11:51:12,0.02,1.53,0.00,24.57,28.97,31.90,13.86,45.43,1014.16,2024.42,2864.58,2696.00,3043.81,599.96,591.39,58.82,0000 0000 0000 0000 000000
2017-08-24 11:56:14,0.02,1.53,0.00,24.56,28.95,31.89,13.82,45.51,1014.15,2024.36,2864.07,2695.97,3043.19,599.46,590.86,58.87,0000 0000 0000 0000 000000
2017-08-24 12:01:15,-0.00,1.53,0.00,24.54,28.95,31.89,13.78,45.38,1014.12,2024.28,2864.00,2695.83,3043.02,599.67,591.15,58.92,0000 0000 0000 0000 000000
2017-08-24 12:06:16,0.02,1.53,0.00,24.54,28.95,31.88,13.87,45.42,1014.16,2024.27,2863.98,2695.35,3043.00,600.00,591.49,58.97,0000 0000 0000 0000 000000
2017-08-24 12:11:17,0.01,1.53,0.00,24.53,28.95,31.88,13.85,45.29,1014.14,2024.25,2863.75,2695.05,3042.99,600.23,591.69,59.02,0000 0000 0000 0000 000000
2017-08-24 12:16:19,0.02,1.54,0.00,24.53,28.95,31.87,13.83,45.34,1014.08,2024.48,2863.54,2695.03,3042.98,600.16,591.69,59.08,0000 0000 0000 0000 000000
2017-08-24 12:21:20,0.00,1.54,0.00,24.51,28.95,31.87,13.86,45.62,1013.93,2024.63,2863.65,2695.03,3042.96,600.00,591.52,59.13,0000 0000 0000 0000 000000
2017-08-24 12:26:21,0.02,1.54,0.00,24.50,28.95,31.86,13.86,45.40,1013.91,2024.55,2863.19,2695.00,3042.70,599.95,591.40,59.18,0000 0000 0000 0000 000000
2017-08-24 12:31:22,0.01,1.54,0.00,24.50,28.94,31.87,13.83,45.49,1013.97,2024.60,2863.00,2695.00,3042.17,599.97,591.47,59.23,0000 0000 0000 0000 000000
2017-08-24 12:36:23,-0.03,1.54,0.00,24.50,28.94,31.86,13.79,45.33,1013.82,2024.34,2862.99,2694.99,3042.01,599.86,591.17,59.28,0000 0000 0000 0000 000000
2017-08-24 12:41:24,0.03,1.54,0.00,24.48,28.92,31.85,13.82,45.29,1013.72,2024.38,2862.90,2694.93,3042.00,599.88,591.25,59.33,0000 0000 0000 0000 000000
2017-08-24 12:46:26,0.05,1.54,0.00,24.47,28.92,31.84,13.82,45.42,1013.70,2024.74,2862.50,2694.85,3042.00,599.77,591.03,59.38,0000 0000 0000 0000 000000
2017-08-24 12:51:27,0.01,1.54,0.00,24.47,28.92,31.83,13.85,45.58,1013.72,2024.82,2862.06,2694.45,3041.96,600.23,591.65,59.43,0000 0000 0000 0000 000000
2017-08-24 12:56:28,0.01,1.54,0.00,24.47,28.92,31.85,13.85,45.34,1013.72,2024.74,2862.00,2694.11,3041.83,600.07,591.41,59.48,0000 0000 0000 0000 000000